map of CUN home
Great Circle Mapper logo
CUN - Airport
Location
City:  Cancún, Quintana Roo, México
Name:Cancún International Airport
ICAO / IATA:MMUN / CUN

Details
Type:Airport (Aerodrome, Airfield)
Use:Public/Civil, International (customs port of entry)
Latitude:21°02'12"N (21.036528)
Longitude:86°52'37"W (-86.877082)
Datum:WGS 1984
Elevation:20 ft (6 m)
Variation:1.5°W (WMM2010 magnetic declination)
Runways:1
Longest:11483 × 197 ft (3500 × 60 m), paved

Time
Time Zone:UTC-6 (DST-5)
Local Time:

Weather
METAR:MMUN 272342Z 03010KT 7SM SCT015 SCT025 BKN080 24/15 A3018 RMK SLP212 53010 920 8/830
TAF:MMUN 272309Z 2800/2906 03008KT 6SM HZ SCT015 SCT025 TX27/2818Z TN22/2812Z
BECMG 2802/2803 02008KT SCT025
FM281300 02015KT P6SM SCT015
BECMG 2817/2818 02018KT
FM290300 04010KT P6SM SCT015

Related Locations
Nearby:
Farthest:CCK: 11776 mi / 18952 km
West Island (Pulau Panjang) [Cocos (Keeling) Islands], CC

Find:

   beyond  
but within

Other Information
Maps:
NOTAMs:
Links:
Sources:

  
flag of México   

Sectional Chart

Flight Planning
at skyvector.com

Satellite Image

Google Maps Satellite View

 

Copyright © 2004-2014 Karl L. Swartz. All rights reserved.
The Great Circle Mapper name and logo are trademarks of the Great Circle Mapper.
All other trademarks mentioned herein belong to their respective owners.
Please see credits for attibutions and further copyright information.

  Follow gcmap on Facebook Follow gcmap on Twitter

hCard Microformat

Geo Microformat